When you browse on this site, cookies collect data to enhance your experience and personalize the content and advertising you see.
Visit our Privacy Policy to learn more. By continuing to use the site, you agree to this use of cookies and data.
  • In Österreich
  • Länderverzeichnis
  • Für 7 Tage
  • Wassertemperatur
  • Wetterkarte
  • News
  • Widgets
  • user-avatar
    Anmelden

    Stündliche Wetter Lyubovichi

    Heute, 25 Februar, Dienstag

    Zeit Temperatur Niederschläge Wind Luftdruck Luftfeuchtigkeit
    00:00 -1°C° 0 mm 2 m/S 746 mmHg 83%
    01:00 -1°C° 0 mm 2 m/S 746 mmHg 86%
    02:00 -1°C° 0 mm 2 m/S 746 mmHg 89%
    03:00 -1°C° 0 mm 2 m/S 745 mmHg 89%
    04:00 -1°C° 0 mm 2 m/S 745 mmHg 89%
    05:00 -1°C° 0 mm 2 m/S 745 mmHg 88%
    06:00 -1°C° 0 mm 2 m/S 744 mmHg 88%
    07:00 +1°C° 0 mm 2 m/S 744 mmHg 87%
    08:00 0°C° 0 mm 3 m/S 744 mmHg 86%
    09:00 +1°C° 0 mm 3 m/S 744 mmHg 82%
    10:00 +1°C° 0 mm 4 m/S 743 mmHg 78%
    11:00 +3°C° 0 mm 4 m/S 743 mmHg 75%
    12:00 +1°C° 0 mm 4 m/S 742 mmHg 81%
    13:00 +1°C° 0 mm 4 m/S 741 mmHg 87%
    14:00 0°C° 0 mm 4 m/S 741 mmHg 94%
    15:00 +1°C° 0.1 mm 4 m/S 740 mmHg 93%
    16:00 +1°C° 0.1 mm 4 m/S 740 mmHg 93%
    17:00 +1°C° 0.1 mm 4 m/S 739 mmHg 92%
    18:00 +3°C° 0.2 mm 4 m/S 739 mmHg 91%
    19:00 +3°C° 0.2 mm 4 m/S 739 mmHg 91%
    20:00 +3°C° 0.2 mm 4 m/S 739 mmHg 90%
    21:00 +3°C° 0.1 mm 4 m/S 738 mmHg 91%
    22:00 +3°C° 0.1 mm 4 m/S 738 mmHg 92%
    23:00 +3°C° 0.1 mm 4 m/S 737 mmHg 92%

    Morgen, 26 Februar, Mittwoch

    Zeit Temperatur Niederschläge Wind Luftdruck Luftfeuchtigkeit
    00:00 +3°C° 0.2 mm 4 m/S 737 mmHg 93%
    01:00 +3°C° 0.2 mm 4 m/S 736 mmHg 94%
    02:00 +4°C° 0.2 mm 4 m/S 736 mmHg 94%
    03:00 +4°C° 0.3 mm 4 m/S 735 mmHg 94%
    04:00 +4°C° 0.3 mm 4 m/S 735 mmHg 94%
    05:00 +4°C° 0.3 mm 3 m/S 734 mmHg 94%
    06:00 +4°C° 0.1 mm 3 m/S 734 mmHg 94%
    07:00 +4°C° 0.1 mm 3 m/S 734 mmHg 95%
    08:00 +4°C° 0.1 mm 3 m/S 734 mmHg 95%
    09:00 +5°C° 0 mm 3 m/S 734 mmHg 91%
    10:00 +7°C° 0 mm 2 m/S 734 mmHg 87%
    11:00 +7°C° 0 mm 2 m/S 734 mmHg 83%
    12:00 +8°C° 0 mm 2 m/S 734 mmHg 80%
    13:00 +9°C° 0 mm 2 m/S 734 mmHg 76%
    14:00 +9°C° 0 mm 2 m/S 734 mmHg 73%
    15:00 +9°C° 0.1 mm 2 m/S 733 mmHg 76%
    16:00 +8°C° 0.1 mm 2 m/S 733 mmHg 79%
    17:00 +8°C° 0.1 mm 2 m/S 733 mmHg 82%
    18:00 +7°C° 0.2 mm 2 m/S 733 mmHg 86%
    19:00 +7°C° 0.2 mm 2 m/S 732 mmHg 89%
    20:00 +7°C° 0.2 mm 2 m/S 732 mmHg 93%
    21:00 +7°C° 0.9 mm 2 m/S 732 mmHg 92%
    22:00 +5°C° 0.9 mm 3 m/S 732 mmHg 91%
    23:00 +5°C° 0.9 mm 3 m/S 732 mmHg 91%

    übermorgen, 27 Februar, Donnerstag

    Zeit Temperatur Niederschläge Wind Luftdruck Luftfeuchtigkeit
    00:00 +5°C° 0.2 mm 3 m/S 732 mmHg 89%
    01:00 +5°C° 0.2 mm 3 m/S 732 mmHg 86%
    02:00 +4°C° 0.2 mm 3 m/S 733 mmHg 84%
    03:00 +4°C° 0 mm 3 m/S 733 mmHg 86%
    04:00 +3°C° 0 mm 3 m/S 732 mmHg 87%
    05:00 +2°C° 0 mm 3 m/S 732 mmHg 89%
    06:00 +2°C° 0 mm 3 m/S 733 mmHg 88%
    07:00 +2°C° 0 mm 3 m/S 733 mmHg 87%
    08:00 +2°C° 0 mm 3 m/S 734 mmHg 86%
    09:00 +2°C° 0 mm 3 m/S 734 mmHg 80%
    10:00 +3°C° 0 mm 4 m/S 735 mmHg 73%
    11:00 +4°C° 0 mm 4 m/S 735 mmHg 67%
    12:00 +4°C° 0 mm 4 m/S 735 mmHg 64%
    13:00 +4°C° 0 mm 4 m/S 735 mmHg 61%
    14:00 +5°C° 0 mm 4 m/S 736 mmHg 58%
    15:00 +4°C° 0.1 mm 4 m/S 736 mmHg 62%
    16:00 +3°C° 0.1 mm 4 m/S 736 mmHg 65%
    17:00 +3°C° 0.1 mm 4 m/S 736 mmHg 69%
    18:00 +1°C° 0 mm 4 m/S 736 mmHg 71%
    19:00 0°C° 0 mm 4 m/S 737 mmHg 73%
    20:00 0°C° 0 mm 3 m/S 737 mmHg 75%
    21:00 0°C° 0 mm 3 m/S 737 mmHg 76%
    22:00 0°C° 0 mm 3 m/S 737 mmHg 77%
    23:00 -1°C° 0 mm 3 m/S 737 mmHg 79%

    28 Februar, Freitag

    Zeit Temperatur Niederschläge Wind Luftdruck Luftfeuchtigkeit
    00:00 -1°C° 0 mm 3 m/S 738 mmHg 79%
    01:00 -1°C° 0 mm 3 m/S 738 mmHg 80%
    02:00 -2°C° 0 mm 3 m/S 738 mmHg 81%
    03:00 -2°C° 0 mm 3 m/S 738 mmHg 81%
    04:00 -2°C° 0 mm 3 m/S 738 mmHg 81%
    05:00 -2°C° 0 mm 3 m/S 738 mmHg 82%
    06:00 -2°C° 0 mm 3 m/S 738 mmHg 80%
    07:00 -2°C° 0 mm 3 m/S 738 mmHg 79%
    08:00 -2°C° 0 mm 3 m/S 739 mmHg 78%
    09:00 0°C° 0 mm 3 m/S 739 mmHg 72%
    10:00 +1°C° 0 mm 3 m/S 739 mmHg 67%
    11:00 +2°C° 0 mm 3 m/S 739 mmHg 61%
    12:00 +3°C° 0 mm 2 m/S 739 mmHg 59%
    13:00 +4°C° 0 mm 2 m/S 740 mmHg 57%
    14:00 +5°C° 0 mm 1 m/S 740 mmHg 54%
    15:00 +5°C° 0 mm 1 m/S 740 mmHg 58%
    16:00 +5°C° 0 mm 1 m/S 740 mmHg 61%
    17:00 +3°C° 0 mm 0 m/S 740 mmHg 65%
    18:00 +3°C° 0 mm 0 m/S 741 mmHg 67%
    19:00 +2°C° 0 mm 0 m/S 741 mmHg 70%
    20:00 +3°C° 0 mm 1 m/S 741 mmHg 72%
    21:00 +2°C° 0 mm 1 m/S 742 mmHg 75%
    22:00 +2°C° 0 mm 1 m/S 742 mmHg 78%
    23:00 +2°C° 0 mm 1 m/S 742 mmHg 80%

    29 Februar, Samstag

    Zeit Temperatur Niederschläge Wind Luftdruck Luftfeuchtigkeit
    00:00 +2°C° 0.1 mm 1 m/S 743 mmHg 80%
    01:00 +1°C° 0.1 mm 1 m/S 743 mmHg 80%
    02:00 -1°C° 0.1 mm 2 m/S 743 mmHg 80%
    03:00 -1°C° 0 mm 2 m/S 743 mmHg 80%
    04:00 -1°C° 0 mm 2 m/S 744 mmHg 81%
    05:00 -2°C° 0 mm 2 m/S 744 mmHg 81%
    06:00 -1°C° 0 mm 2 m/S 744 mmHg 80%
    07:00 -1°C° 0 mm 2 m/S 745 mmHg 79%
    08:00 -1°C° 0 mm 2 m/S 745 mmHg 79%
    09:00 0°C° 0 mm 3 m/S 745 mmHg 77%
    10:00 0°C° 0 mm 3 m/S 745 mmHg 76%
    11:00 0°C° 0 mm 4 m/S 745 mmHg 74%
    12:00 0°C° 0 mm 4 m/S 745 mmHg 74%
    13:00 0°C° 0 mm 4 m/S 746 mmHg 75%
    14:00 0°C° 0 mm 4 m/S 746 mmHg 75%
    15:00 0°C° 0 mm 4 m/S 746 mmHg 77%
    16:00 +1°C° 0 mm 3 m/S 746 mmHg 79%
    17:00 +1°C° 0 mm 3 m/S 746 mmHg 81%
    18:00 0°C° 0 mm 3 m/S 747 mmHg 82%
    19:00 +1°C° 0 mm 2 m/S 747 mmHg 83%
    20:00 -1°C° 0 mm 2 m/S 748 mmHg 83%
    21:00 -1°C° 0 mm 2 m/S 748 mmHg 83%
    22:00 -1°C° 0 mm 2 m/S 748 mmHg 83%
    23:00 -1°C° 0 mm 2 m/S 748 mmHg 83%

    1 März, Sonntag

    Zeit Temperatur Niederschläge Wind Luftdruck Luftfeuchtigkeit
    00:00 -2°C° 0 mm 2 m/S 748 mmHg 83%
    01:00 0°C° 0 mm 1 m/S 748 mmHg 84%
    02:00 0°C° 0 mm 1 m/S 748 mmHg 85%
    03:00 -2°C° 0 mm 2 m/S 748 mmHg 86%
    04:00 -2°C° 0 mm 2 m/S 748 mmHg 87%
    05:00 -2°C° 0 mm 2 m/S 748 mmHg 88%
    06:00 -2°C° 0 mm 3 m/S 748 mmHg 85%
    07:00 -2°C° 0 mm 4 m/S 748 mmHg 82%
    08:00 -2°C° 0 mm 4 m/S 748 mmHg 79%
    09:00 -1°C° 0 mm 5 m/S 747 mmHg 75%
    10:00 +1°C° 0 mm 5 m/S 747 mmHg 70%
    11:00 +2°C° 0 mm 6 m/S 747 mmHg 65%
    12:00 +3°C° 0 mm 6 m/S 747 mmHg 63%
    13:00 +4°C° 0 mm 6 m/S 746 mmHg 60%
    14:00 +4°C° 0 mm 6 m/S 746 mmHg 57%
    15:00 +5°C° 0 mm 5 m/S 745 mmHg 60%
    16:00 +3°C° 0 mm 5 m/S 745 mmHg 63%
    17:00 +4°C° 0 mm 4 m/S 745 mmHg 67%
    18:00 +4°C° 0 mm 4 m/S 745 mmHg 68%
    19:00 +3°C° 0 mm 4 m/S 745 mmHg 70%
    20:00 +3°C° 0 mm 4 m/S 745 mmHg 72%
    21:00 +1°C° 0.1 mm 4 m/S 745 mmHg 76%
    22:00 +1°C° 0.1 mm 4 m/S 745 mmHg 79%
    23:00 +1°C° 0.1 mm 4 m/S 744 mmHg 83%
    Mehr zeigen